FENGYUN 1C DEB

Satellite information

Favourite Embed

Satellite Type and Status

DEBRISIN ORBIT

Key statistics

Satellite FENGYUN 1C DEB at a glance.

Uptime

9714

Days in orbit

Revolutions

≈ 14.2

Per day

Orbit

SSO

Sun Synchronous Orbit

Inclination

99.1

Latest

Satellite identification and parameters

Extended collection of information and parameters for FENGYUN 1C DEB.

Object identification

Identified? True

Debris? True

Object name: FENGYUN 1C DEB

International designator: 1999-025DJJ

Object number (NORAD): 33745

Object ID (CCSDS): 33745

Country: PEOPLES REPUBLIC OF CHINA (PRC)

Current information (Y/N): Y

RCS size: SMALL

Orbital parameters

Period: 101.245 minutes

Inclination: 99.1144 deg

SMA: 7195.769 km

Apoapsis: 856.227 km

Periapsis: 779.04 km

RAAN: 20.5943 deg

Eccentricy: 0.0053634

Argument of periapsis: 275.368 deg

Mean anomaly: 84.1379 deg

Mean motion: 14.22286162 rev/day

Mean motion (dot): 0.00004382 rev/day2

B* drag term: 0.0019638 1/REarth

Two-line elements (TLE)

Creation date: Dec. 9, 2025, 11:46 p.m.

Reference frame: TEME

Reference center: EARTH

Epoch: Dec. 9, 2025, 12:54 p.m. UTC

TLE line 0: 0 FENGYUN 1C DEB

TLE line 1: 1 33745U 99025DJJ 25343.53791182 .00004382 00000-0 19638-2 0 9996

TLE line 2: 2 33745 99.1144 20.5943 0053634 275.3680 84.1379 14.22286162659564

Live tracking on map

Real-time ground track for satellite FENGYUN 1C DEB.

In-orbit conjunctions

A list of the most updated potential collisions computed for object FENGYUN 1C DEB.

Target Orbit TCA Probability of collision Miss distance Type
THOR BURNER 2 R/B SSO 2025-03-19 22:40:21 0.0003223525 358.0 (m) ROCKET BODY
CZ-6A DEB SSO 2024-12-21 12:15:09 0.0001245014 166.0 (m) DEBRIS

Associated space launch

Chinese polar orbiting meteorological satellite

FENGYUN 1C DEB was lifted into orbit during the mission ‘Long March 4B | Feng Yun 1C’, on board a Long March 4B space rocket.

The launch took place on May 10, 1999, 1:33 a.m. from Launch Complex 7.

For more information about the launch, click the button.

Launch to space Long March 4B | Feng Yun 1C
Long March 4B | Feng Yun 1C

Agency: N/A

Status: Launch Successful

Launch date: May 10, 1999, 1:33 a.m. UTC

Rocket: Long March 4B

Launch pad: Launch Complex 7

Location: Taiyuan Satellite Launch Center, People's Republic of China

...

Latest news about this satellite

There are no fresh news available about this satellite. Check back as we update our databases every day.


Newsletter sign-up

Weekly statistics, charts and insights to help you stay on top of the space industry.